Tracking 30922 objects as of 2-Jul-2025
HD Live streaming from Space Station
objects crossing your sky now

INTELSAT 4-F7

Track INTELSAT 4-F7 now!
INTELSAT 4-F7 is classified as:


NORAD ID: 6796
Int'l Code: 1973-058A
Perigee: 36,087.9 km
Apogee: 36,138.4 km
Inclination: 8.0 °
Period: 1,452.4 minutes
Semi major axis: 42484 km
RCS: 1.5964 m2 (large)
Launch date: August 23, 1973
Source: International Telecommunications Satellite Organization (ITSO)
Launch site: AIR FORCE EASTERN TEST RANGE (AFETR)
Your satellite tracking list
Your tracking list is empty




NASA's NSSDC Master Catalog

Two Line Element Set (TLE):
1 06796U 73058A   25182.37961546  .00000059  00000-0  00000-0 0  9994
2 06796   8.0484 299.6954 0005951 198.9694 164.1450  0.99143098132172
Source of the keplerian elements: AFSPC